Satellite: HRBE Catalog number: 37855 Epoch time: 13157.54506851 Element set: 514 Inclination: 101.7180 deg RA of node: 006.8620 deg Eccentricity: 0.0236315 Arg of perigee: 057.1390 deg Mean anomaly: 356.1732 deg Mean motion: 14.83982530 rev/day Decay rate: 2.610e-05 rev/day^2 Epoch rev: 8687 Checksum: 290
Satellite: RS-39 Catalog number: 38051 Epoch time: 13157.77107808 Element set: 510 Inclination: 051.6359 deg RA of node: 260.8471 deg Eccentricity: 0.0011592 Arg of perigee: 228.3934 deg Mean anomaly: 269.5053 deg Mean motion: 15.32520351 rev/day Decay rate: 1.5819e-04 rev/day^2 Epoch rev: 7618 Checksum: 307
Satellite: E-STAR Catalog number: 38079 Epoch time: 13157.55957943 Element set: 187 Inclination: 069.4737 deg RA of node: 208.2147 deg Eccentricity: 0.0614145 Arg of perigee: 151.3945 deg Mean anomaly: 310.3697 deg Mean motion: 14.46076114 rev/day Decay rate: 4.6513e-04 rev/day^2 Epoch rev: 6820 Checksum: 322
Satellite: GOLIAT Catalog number: 38085 Epoch time: 13157.69091441 Element set: 100 Inclination: 069.4752 deg RA of node: 209.9878 deg Eccentricity: 0.0624414 Arg of perigee: 152.2992 deg Mean anomaly: 322.8488 deg Mean motion: 14.43956242 rev/day Decay rate: 5.3236e-04 rev/day^2 Epoch rev: 6816 Checksum: 325
Satellite: HORYU-2 Catalog number: 38340 Epoch time: 13156.87959275 Element set: 517 Inclination: 098.2135 deg RA of node: 104.4326 deg Eccentricity: 0.0011702 Arg of perigee: 292.8983 deg Mean anomaly: 067.0927 deg Mean motion: 14.70940879 rev/day Decay rate: 1.238e-05 rev/day^2 Epoch rev: 5645 Checksum: 324
Satellite: RS-40 Catalog number: 38736 Epoch time: 13157.04445151 Element set: 289 Inclination: 082.4775 deg RA of node: 162.0709 deg Eccentricity: 0.0021576 Arg of perigee: 355.0978 deg Mean anomaly: 004.9888 deg Mean motion: 12.42868365 rev/day Decay rate: 1.0e-07 rev/day^2 Epoch rev: 3886 Checksum: 326
Satellite: PROITERES Catalog number: 38756 Epoch time: 13157.73045336 Element set: 846 Inclination: 098.2528 deg RA of node: 234.5811 deg Eccentricity: 0.0013356 Arg of perigee: 135.2124 deg Mean anomaly: 225.0162 deg Mean motion: 14.74224778 rev/day Decay rate: 6.41e-06 rev/day^2 Epoch rev: 3985 Checksum: 298
Satellite: RAIKO Catalog number: 38852 Epoch time: 13157.63583399 Element set: 246 Inclination: 051.6370 deg RA of node: 142.9324 deg Eccentricity: 0.0011784 Arg of perigee: 358.3072 deg Mean anomaly: 001.7886 deg Mean motion: 15.77763817 rev/day Decay rate: 1.24379e-03 rev/day^2 Epoch rev: 3820 Checksum: 324
Satellite: FITSAT 1 Catalog number: 38853 Epoch time: 13156.87455459 Element set: 250 Inclination: 051.6370 deg RA of node: 141.5917 deg Eccentricity: 0.0010083 Arg of perigee: 021.5877 deg Mean anomaly: 338.5552 deg Mean motion: 15.90169098 rev/day Decay rate: 2.13879e-03 rev/day^2 Epoch rev: 3820 Checksum: 318
Satellite: TechEdSat Catalog number: 38854 Epoch time: 13124.93253577 Element set: 290 Inclination: 051.6449 deg RA of node: 297.0261 deg Eccentricity: 0.0010505 Arg of perigee: 310.8629 deg Mean anomaly: 049.0629 deg Mean motion: 16.38844728 rev/day Decay rate: 1.1592855e-01 rev/day^2 Epoch rev: 3329 Checksum: 325
Satellite: F 1 Catalog number: 38855 Epoch time: 13129.77714356 Element set: 287 Inclination: 051.5085 deg RA of node: 272.4145 deg Eccentricity: 0.0008326 Arg of perigee: 194.2908 deg Mean anomaly: 166.5495 deg Mean motion: 16.49710473 rev/day Decay rate: 2.7424026e-01 rev/day^2 Epoch rev: 3394 Checksum: 332
Satellite: WeWish Catalog number: 38856 Epoch time: 13069.98095549 Element set: 248 Inclination: 051.6166 deg RA of node: 215.0521 deg Eccentricity: 0.0008325 Arg of perigee: 316.0438 deg Mean anomaly: 044.8765 deg Mean motion: 16.41348316 rev/day Decay rate: 1.6701328e-01 rev/day^2 Epoch rev: 2458 Checksum: 318
Satellite: OSSI-1 Catalog number: 39131 Epoch time: 13113.49391669 Element set: 3 Inclination: 064.8913 deg RA of node: 019.7169 deg Eccentricity: 0.0213781 Arg of perigee: 058.2074 deg Mean anomaly: 115.1737 deg Mean motion: 15.55484603 rev/day Decay rate: 1.71511e-03 rev/day^2 Epoch rev: 63 Checksum: 287
Satellite: BEESAT-3 Catalog number: 39134 Epoch time: 13157.61326282 Element set: 120 Inclination: 064.8763 deg RA of node: 241.7804 deg Eccentricity: 0.0014896 Arg of perigee: 208.6311 deg Mean anomaly: 151.3990 deg Mean motion: 15.00279236 rev/day Decay rate: 4.284e-05 rev/day^2 Epoch rev: 724 Checksum: 285
Satellite: BEESAT-2 Catalog number: 39136 Epoch time: 13157.61308007 Element set: 119 Inclination: 064.8767 deg RA of node: 241.7805 deg Eccentricity: 0.0014706 Arg of perigee: 208.8070 deg Mean anomaly: 151.2236 deg Mean motion: 15.00258077 rev/day Decay rate: 3.784e-05 rev/day^2 Epoch rev: 724 Checksum: 284
/EX
participants (1)
-
Ray Hoad